Location: Township of Marena
(38.1747°N, 99.6798°W)
Time: 12:05:43
(UTC+00:00)

Okean-O - Pass Details

Date: 26 October 2020
Orbit: 638 x 641 km, 98.2° (Epoch: 24 November)

Event Time Altitude Azimuth Distance (km) Brightness Sun altitude
Rises 00:30:38 0° 142° (SE) 2,933 5.7 -9.2°
Reaches altitude 10° 00:33:01 10° 131° (SE) 2,028 4.8 -9.7°
Maximum altitude 00:36:54 31° 70° (ENE) 1,131 3.4 -10.5°
Drops below altitude 10° 00:40:47 10° 9° (N) 2,040 5.1 -11.2°
Sets 00:43:11 0° 359° (N) 2,953 6.0 -11.7°
